MST,Max TemperatureF,Mean TemperatureF,Min TemperatureF,Max Dew PointF,MeanDew PointF,Min DewpointF,Max Humidity, Mean Humidity, Min Humidity, Max Sea Level PressureIn, Mean Sea Level PressureIn, Min Sea Level PressureIn, Max VisibilityMiles, Mean VisibilityMiles, Min VisibilityMiles, Max Wind SpeedMPH, Mean Wind SpeedMPH, Max Gust SpeedMPH,PrecipitationIn, CloudCover, Events, WindDirDegrees
2011-12-1,29,15,0,11,5,-3,95,69,42,30.82,30.64,30.33,10,10,10,9,2,12,0.00,0,,349
2011-12-2,30,20,10,19,13,7,88,69,50,30.39,30.10,29.90,10,7,0,21,7,25,T,6,Fog-Snow,336
2011-12-3,23,11,-2,18,9,-5,91,74,56,30.42,30.33,30.09,10,9,2,16,4,20,T,6,Snow,344
2011-12-4,21,5,-12,18,9,-17,91,72,53,30.71,30.33,30.10,10,6,1,18,6,26,0.05,5,Snow,347
2011-12-5,19,1,-17,2,-8,-21,87,68,49,30.76,30.62,30.23,10,10,9,8,2,9,0.00,0,,140
2011-12-6,32,16,0,16,5,-2,95,74,53,30.53,30.42,30.20,10,10,10,9,2,10,0.00,4,,137
2011-12-7,34,18,2,21,11,0,92,77,61,30.48,30.35,30.10,10,10,10,9,2,12,0.00,3,,249
2011-12-8,35,17,-2,14,2,-6,91,59,27,30.47,30.31,30.09,10,7,0,14,4,21,0.00,3,Fog,304
2011-12-9,33,18,2,14,4,-2,88,67,45,30.61,30.50,30.38,10,10,10,8,3,10,0.00,1,,149
2011-12-10,36,17,-2,17,5,-5,88,68,47,30.52,30.32,29.98,10,10,10,7,2,9,0.00,0,,158
2011-12-11,27,15,3,14,7,0,88,72,55,30.16,30.08,29.87,10,10,10,7,2,8,0.00,0,,141
2011-12-12,29,15,0,16,6,-4,95,77,58,30.26,30.18,29.96,10,10,10,10,2,13,0.00,0,,151
2011-12-13,24,9,-6,13,1,-10,86,74,62,30.25,30.07,29.85,10,10,7,7,2,7,0.00,3,,148
2011-12-14,31,23,14,21,18,7,88,76,63,30.23,30.00,29.87,10,10,9,7,3,,T,7,Snow,16
2011-12-15,32,20,7,19,14,5,92,75,58,30.42,30.27,30.03,10,10,10,9,2,12,0.00,7,,279
2011-12-16,36,24,12,23,17,9,84,70,56,30.56,30.48,30.31,10,10,10,12,3,16,0.00,6,,326
2011-12-17,45,28,10,25,15,8,96,71,45,30.55,30.44,30.18,10,10,9,8,2,9,0.00,0,,105
2011-12-18,43,25,7,27,17,4,92,68,43,30.26,30.14,29.99,10,10,10,5,1,,0.00,4,,-1
2011-12-19,34,23,12,27,22,9,92,74,56,30.34,30.25,30.13,10,10,10,7,3,,0.00,4,,335
2011-12-20,35,25,15,25,19,11,88,70,50,30.22,30.04,29.88,10,10,9,7,4,,0.00,5,,321
2011-12-21,26,12,-3,25,17,-6,96,78,60,30.58,30.05,29.81,10,6,0,21,7,29,0.04,7,Fog-Snow,325
2011-12-22,17,3,-11,7,-5,-15,91,79,67,30.73,30.57,30.30,10,8,2,8,1,8,0.00,0,,154
2011-12-23,23,7,-10,7,-4,-15,95,74,52,30.82,30.67,30.34,10,9,2,7,1,9,0.00,0,,136
2011-12-24,37,21,5,20,13,4,88,70,52,30.75,30.67,30.45,10,10,9,8,2,10,0.00,5,,252
2011-12-25,39,22,4,23,13,2,92,64,35,30.61,30.34,30.00,10,10,10,22,4,30,0.00,1,,146
2011-12-26,34,22,9,15,11,5,83,62,41,30.34,30.24,30.08,10,10,10,18,5,28,0.00,3,,297
2011-12-27,39,27,15,24,20,11,75,62,48,30.24,30.13,30.00,10,10,10,17,8,25,0.00,6,,231
2011-12-28,44,37,29,32,28,21,89,71,53,30.01,29.92,29.75,10,10,10,23,6,32,T,7,Rain,224
2011-12-29,43,35,27,33,22,12,78,61,43,30.00,29.84,29.60,10,9,1,39,7,54,0.00,4,Rain-Snow,281
2011-12-30,48,38,28,34,29,16,92,71,49,29.87,29.63,29.52,10,6,0,35,6,49,0.20,8,Fog-Rain-Snow,295
2011-12-31,30,22,13,18,9,6,78,62,46,30.54,30.24,29.67,10,10,10,29,9,36,T,2,,289